Regional Weather Roundup
Issued by NWS

Home | Current Version | Previous Version | Text Only | Print | Product List | Glossary Off
Versions: 1 2 3 4 5 6 7 8 9 10 11 12 13 14 15 16 17 18 19 20 21 22 23 24 25 26 27

000
ASUS45 KSLC 290310
RWRUT

UTAH REGIONAL WEATHER ROUNDUP
NATIONAL WEATHER SERVICE SALT LAKE CITY UT
900 PM MDT TUE MAR 28 2017

UTZ001>011-023>025-290400-

NORTHERN UTAH

CITY           SKY/WX    TMP DP  RH WIND       PRES   REMARKS
BRIGHAM CITY     N/A     46  28  50 NW9       30.20R
HILL AFB       CLEAR     45  28  51 NW10      30.19R
LOGAN          CLEAR     45  31  58 N8        30.20R
OGDEN          CLEAR     42  30  62 N5        30.19R
SALT LAKE CITY PTCLDY    48  33  56 NW10      30.19R
TOOELE VALLEY  CLEAR     41  32  70 SW3       30.21R
WENDOVER       CLEAR     50  24  36 N8        30.22R
HEBER CITY     PTCLDY    43  23  45 N5        30.16R
WEST JORDAN    CLEAR     48  39  70 W9        30.20R

$$

UTZ011>015-024>027-290400-

CENTRAL/NORTHEAST UTAH

CITY           SKY/WX    TMP DP  RH WIND       PRES   REMARKS
PROVO AIRPORT  CLEAR     47  31  53 NW21      30.19R
MOAB/CANYONLAN CLEAR     49  31  49 N12       30.00R
DELTA          CLEAR     41  32  70 NW7       30.20R
PRICE          CLEAR     43  27  53 NW10G20   30.09R
RICHFIELD      CLOUDY    45  28  53 NE5       30.21R
ROOSEVELT      CLEAR     43  36  75 W8        30.11R
VERNAL         CLEAR     43  30  60 NE8       30.10R

$$

UTZ013>016-019>022-027-290400-

SOUTHERN UTAH

CITY           SKY/WX    TMP DP  RH WIND       PRES   REMARKS
BRYCE CANYON   CLEAR     35  18  49 N16       30.13R WCI  25
CEDAR CITY     MOCLDY    41  29  62 N9        30.18R
MILFORD        CLEAR     40  29  64 N10       30.19R WCI  33
ST GEORGE      PTCLDY    58  25  28 NE12      30.06R
HANKSVILLE     PTCLDY    54  23  30 N15G23    30.05R
KANAB          CLEAR     48  23  37 N18G32    30.10R
BLANDING       MOCLDY    46  30  54 N22G33    30.00S

$$

REGIONAL REPORTS     COLORADO/ARIZONA

CITY           SKY/WX    TMP DP  RH WIND       PRES   REMARKS
CRAIG, CO      CLOUDY    40  30  67 N14       30.07R WCI  32
GRAND JUNCTION CLOUDY    48  38  68 N9        30.00R
RIFLE, CO      CLOUDY    46  34  62 NW14      30.01R
MONTROSE, CO   CLOUDY    45  36  70 NW21G31   29.96R
CORTEZ, CO     CLOUDY    44  34  67 NW13      29.90R
COLORADO CITY    N/A     48  27  43 NW6       30.12R
PAGE, AZ       PTCLDY    58  21  24 NW13      29.99R
GRAND CANYON   CLEAR     44  22  41 N5        30.05R
KINGMAN, AZ    CLEAR     54   5  14 NE5       30.03R
FLAGSTAFF, AZ  MOCLDY    43  25  49 NW5       30.04R

$$

REGIONAL REPORTS    NEVADA/IDAHO/WYOMING

CITY           SKY/WX    TMP DP  RH WIND       PRES   REMARKS
LAS VEGAS, NV  PTCLDY    68  15  13 N9        30.02R
ELY, NY        CLEAR     38  25  59 N9        30.22R WCI  31
ELKO, NV       CLEAR     45  26  47 NW9       30.27R
POCATELLO, ID  CLOUDY    43  27  53 SW14      30.23R
BURLEY, ID     MOCLDY    44  28  53 W10       30.23R
FORT BRIDGER,    N/A     35  25  66 W12       30.20S WCI  27
EVANSTON, WY   CLEAR     33  23  66 N12       30.20R WCI  24
ROCK SPRINGS,  CLOUDY    36  32  85 CALM      30.16R
KEMMERER, WY     N/A     32  23  69 W12       30.18R WCI  23

$$




USA.gov is the U.S. government's official web portal to all federal, state and local government web resources and services.